Year,Month,Day,Hour,Minute,Value (Times are PST for temperature in C)
2006,05,02,00,00,7.30
2006,05,02,00,01,7.20
2006,05,02,00,02,7.20
2006,05,02,00,03,7.20
2006,05,02,00,04,7.20
2006,05,02,00,05,7.20
2006,05,02,00,06,7.20
2006,05,02,00,07,7.10
2006,05,02,00,08,7.10
2006,05,02,00,09,7.10
2006,05,02,00,10,7.10
2006,05,02,00,11,7.10
2006,05,02,00,12,7.10
2006,05,02,00,13,7.10
2006,05,02,00,14,7.10
2006,05,02,00,15,7.10
2006,05,02,00,16,7.00
2006,05,02,00,17,7.00
2006,05,02,00,18,7.00
2006,05,02,00,19,7.00
2006,05,02,00,20,7.00
2006,05,02,00,21,7.00
2006,05,02,00,22,7.00
2006,05,02,00,23,7.00
2006,05,02,00,24,7.00
2006,05,02,00,25,7.00
2006,05,02,00,26,7.00
2006,05,02,00,27,7.00
2006,05,02,00,28,6.90
2006,05,02,00,29,6.80
2006,05,02,00,30,6.80
2006,05,02,00,31,6.80
2006,05,02,00,32,6.80
2006,05,02,00,33,6.80
2006,05,02,00,34,6.80
2006,05,02,00,35,6.80
2006,05,02,00,36,6.80
2006,05,02,00,37,6.70
2006,05,02,00,38,6.70
2006,05,02,00,39,6.70
2006,05,02,00,40,6.60
2006,05,02,00,41,6.60
2006,05,02,00,42,6.60
2006,05,02,00,43,6.60
2006,05,02,00,44,6.60
2006,05,02,00,45,6.60
2006,05,02,00,46,6.60
2006,05,02,00,47,6.50
2006,05,02,00,48,6.40
2006,05,02,00,49,6.40
2006,05,02,00,50,6.40
2006,05,02,00,51,6.30
2006,05,02,00,52,6.30
2006,05,02,00,53,6.30
2006,05,02,00,54,6.30
2006,05,02,00,55,6.30
2006,05,02,00,56,6.30
2006,05,02,00,57,6.30
2006,05,02,00,58,6.30
2006,05,02,00,59,6.30
2006,05,02,01,00,6.30
2006,05,02,01,01,6.20
2006,05,02,01,02,6.20
2006,05,02,01,03,6.20
2006,05,02,01,04,6.20
2006,05,02,01,05,6.20
2006,05,02,01,06,6.20
2006,05,02,01,07,6.10
2006,05,02,01,08,6.10
2006,05,02,01,09,6.00
2006,05,02,01,10,6.00
2006,05,02,01,11,6.00
2006,05,02,01,12,6.00
2006,05,02,01,13,6.00
2006,05,02,01,14,6.00
2006,05,02,01,15,6.00
2006,05,02,01,16,6.00
2006,05,02,01,17,6.00
2006,05,02,01,18,5.90
2006,05,02,01,19,5.90
2006,05,02,01,20,5.90
2006,05,02,01,21,5.90
2006,05,02,01,22,5.90
2006,05,02,01,23,5.90
2006,05,02,01,24,5.90
2006,05,02,01,25,5.90
2006,05,02,01,26,5.80
2006,05,02,01,27,5.70
2006,05,02,01,28,5.70
2006,05,02,01,29,5.70
2006,05,02,01,30,5.60
2006,05,02,01,31,5.60
2006,05,02,01,32,5.60
2006,05,02,01,33,5.50
2006,05,02,01,34,5.50
2006,05,02,01,35,5.50
2006,05,02,01,36,5.40
2006,05,02,01,37,5.30
2006,05,02,01,38,5.30
2006,05,02,01,39,5.30
2006,05,02,01,40,5.30
2006,05,02,01,41,5.30
2006,05,02,01,42,5.30
2006,05,02,01,43,5.30
2006,05,02,01,44,5.30
2006,05,02,01,45,5.20
2006,05,02,01,46,5.10
2006,05,02,01,47,5.10
2006,05,02,01,48,5.10
2006,05,02,01,49,5.10
2006,05,02,01,50,5.10
2006,05,02,01,51,5.10
2006,05,02,01,52,5.10
2006,05,02,01,53,5.10
2006,05,02,01,54,5.00
2006,05,02,01,55,4.90
2006,05,02,01,56,4.90
2006,05,02,01,57,4.90
2006,05,02,01,58,4.90
2006,05,02,01,59,4.80
2006,05,02,02,00,4.70
2006,05,02,02,01,4.70
2006,05,02,02,02,4.70
2006,05,02,02,03,4.70
2006,05,02,02,04,4.80
2006,05,02,02,05,4.90
2006,05,02,02,06,4.90
2006,05,02,02,07,4.90
2006,05,02,02,08,4.90
2006,05,02,02,09,4.80
2006,05,02,02,10,4.80
2006,05,02,02,11,4.80
2006,05,02,02,12,4.80
2006,05,02,02,13,4.70
2006,05,02,02,14,4.60
2006,05,02,02,15,4.60
2006,05,02,02,16,4.50
2006,05,02,02,17,4.50
2006,05,02,02,18,4.40
2006,05,02,02,19,4.40
2006,05,02,02,20,4.30
2006,05,02,02,21,4.20
2006,05,02,02,22,4.20
2006,05,02,02,23,4.20
2006,05,02,02,24,4.20
2006,05,02,02,25,4.20
2006,05,02,02,26,4.20
2006,05,02,02,27,4.10
2006,05,02,02,28,4.10
2006,05,02,02,29,4.10
2006,05,02,02,30,4.10
2006,05,02,02,31,4.10
2006,05,02,02,32,4.20
2006,05,02,02,33,4.20
2006,05,02,02,34,4.20
2006,05,02,02,35,4.20
2006,05,02,02,36,4.20
2006,05,02,02,37,4.20
2006,05,02,02,38,4.20
2006,05,02,02,39,4.20
2006,05,02,02,40,4.20
2006,05,02,02,41,4.20
2006,05,02,02,42,4.10
2006,05,02,02,43,4.10
2006,05,02,02,44,4.00
2006,05,02,02,45,4.00
2006,05,02,02,46,4.00
2006,05,02,02,47,4.00
2006,05,02,02,48,4.00
2006,05,02,02,49,4.00
2006,05,02,02,50,4.00
2006,05,02,02,51,4.00
2006,05,02,02,52,4.00
2006,05,02,02,53,4.00
2006,05,02,02,54,3.90
2006,05,02,02,55,3.90
2006,05,02,02,56,3.90
2006,05,02,02,57,4.00
2006,05,02,02,58,3.90
2006,05,02,02,59,3.90
2006,05,02,03,00,3.90
2006,05,02,03,01,3.80
2006,05,02,03,02,3.80
2006,05,02,03,03,3.80
2006,05,02,03,04,3.80
2006,05,02,03,05,3.80
2006,05,02,03,06,3.80
2006,05,02,03,07,3.80
2006,05,02,03,08,3.80
2006,05,02,03,09,3.80
2006,05,02,03,10,3.80
2006,05,02,03,11,3.80
2006,05,02,03,12,3.80
2006,05,02,03,13,3.80
2006,05,02,03,14,3.70
2006,05,02,03,15,3.70
2006,05,02,03,16,3.80
2006,05,02,03,17,3.80
2006,05,02,03,18,3.80
2006,05,02,03,19,3.80
2006,05,02,03,20,3.80
2006,05,02,03,21,3.80
2006,05,02,03,22,3.80
2006,05,02,03,23,3.70
2006,05,02,03,24,3.70
2006,05,02,03,25,3.60
2006,05,02,03,26,3.50
2006,05,02,03,27,3.50
2006,05,02,03,28,3.50
2006,05,02,03,29,3.40
2006,05,02,03,30,3.30
2006,05,02,03,31,3.30
2006,05,02,03,32,3.30
2006,05,02,03,33,3.30
2006,05,02,03,34,3.30
2006,05,02,03,35,3.30
2006,05,02,03,36,3.30
2006,05,02,03,37,3.30
2006,05,02,03,38,3.30
2006,05,02,03,39,3.30
2006,05,02,03,40,3.30
2006,05,02,03,41,3.30
2006,05,02,03,42,3.30
2006,05,02,03,43,3.30
2006,05,02,03,44,3.30
2006,05,02,03,45,3.30
2006,05,02,03,46,3.30
2006,05,02,03,47,3.20
2006,05,02,03,48,3.20
2006,05,02,03,49,3.20
2006,05,02,03,50,3.20
2006,05,02,03,51,3.10
2006,05,02,03,52,3.10
2006,05,02,03,53,3.10
2006,05,02,03,54,3.10
2006,05,02,03,55,3.10
2006,05,02,03,56,3.10
2006,05,02,03,57,3.10
2006,05,02,03,58,3.10
2006,05,02,03,59,3.10
2006,05,02,04,00,3.10
2006,05,02,04,01,3.10
2006,05,02,04,02,3.10
2006,05,02,04,03,3.10
2006,05,02,04,04,3.00
2006,05,02,04,05,2.90
2006,05,02,04,06,2.90
2006,05,02,04,07,2.80
2006,05,02,04,08,2.80
2006,05,02,04,09,2.70
2006,05,02,04,10,2.70
2006,05,02,04,11,2.60
2006,05,02,04,12,2.60
2006,05,02,04,13,2.60
2006,05,02,04,14,2.50
2006,05,02,04,15,2.50
2006,05,02,04,16,2.50
2006,05,02,04,17,2.50
2006,05,02,04,18,2.40
2006,05,02,04,19,2.40
2006,05,02,04,20,2.40
2006,05,02,04,21,2.40
2006,05,02,04,22,2.40
2006,05,02,04,23,2.40
2006,05,02,04,24,2.40
2006,05,02,04,25,2.40
2006,05,02,04,26,2.40
2006,05,02,04,27,2.40
2006,05,02,04,28,2.40
2006,05,02,04,29,2.30
2006,05,02,04,30,2.30
2006,05,02,04,31,2.30
2006,05,02,04,32,2.30
2006,05,02,04,33,2.30
2006,05,02,04,34,2.30
2006,05,02,04,35,2.30
2006,05,02,04,36,2.20
2006,05,02,04,37,2.20
2006,05,02,04,38,2.20
2006,05,02,04,39,2.20
2006,05,02,04,40,2.20
2006,05,02,04,41,2.20
2006,05,02,04,42,2.20
2006,05,02,04,43,2.20
2006,05,02,04,44,2.10
2006,05,02,04,45,2.10
2006,05,02,04,46,2.10
2006,05,02,04,47,2.10
2006,05,02,04,48,2.10
2006,05,02,04,49,2.20
2006,05,02,04,50,2.20
2006,05,02,04,51,2.20
2006,05,02,04,52,2.20
2006,05,02,04,53,2.20
2006,05,02,04,54,2.20
2006,05,02,04,55,2.20
2006,05,02,04,56,2.20
2006,05,02,04,57,2.20
2006,05,02,04,58,2.20
2006,05,02,04,59,2.30
2006,05,02,05,00,2.30
2006,05,02,05,01,2.30
2006,05,02,05,02,2.40
2006,05,02,05,03,2.40
2006,05,02,05,04,2.40
2006,05,02,05,05,2.50
2006,05,02,05,06,2.50
2006,05,02,05,07,2.50
2006,05,02,05,08,2.50
2006,05,02,05,09,2.50
2006,05,02,05,10,2.50
2006,05,02,05,11,2.50
2006,05,02,05,12,2.40
2006,05,02,05,13,2.40
2006,05,02,05,14,2.30
2006,05,02,05,15,2.30
2006,05,02,05,16,2.30
2006,05,02,05,17,2.40
2006,05,02,05,18,2.40
2006,05,02,05,19,2.40
2006,05,02,05,20,2.30
2006,05,02,05,21,2.30
2006,05,02,05,22,2.30
2006,05,02,05,23,2.30
2006,05,02,05,24,2.30
2006,05,02,05,25,2.40
2006,05,02,05,26,2.40
2006,05,02,05,27,2.40
2006,05,02,05,28,2.40
2006,05,02,05,29,2.40
2006,05,02,05,30,2.40
2006,05,02,05,31,2.30
2006,05,02,05,32,2.30
2006,05,02,05,33,2.30
2006,05,02,05,34,2.20
2006,05,02,05,35,2.20
2006,05,02,05,36,2.20
2006,05,02,05,37,2.20
2006,05,02,05,38,2.20
2006,05,02,05,39,2.20
2006,05,02,05,40,2.20
2006,05,02,05,41,2.20
2006,05,02,05,42,2.10
2006,05,02,05,43,2.10
2006,05,02,05,44,2.00
2006,05,02,05,45,2.00
2006,05,02,05,46,2.00
2006,05,02,05,47,2.00
2006,05,02,05,48,2.00
2006,05,02,05,49,2.00
2006,05,02,05,50,2.00
2006,05,02,05,51,2.00
2006,05,02,05,52,2.00
2006,05,02,05,53,2.00
2006,05,02,05,54,2.00
2006,05,02,05,55,2.00
2006,05,02,05,56,2.00
2006,05,02,05,57,1.90
2006,05,02,05,58,1.90
2006,05,02,05,59,1.90
2006,05,02,06,00,1.90
2006,05,02,06,01,1.80
2006,05,02,06,02,1.80
2006,05,02,06,03,1.80
2006,05,02,06,04,1.80
2006,05,02,06,05,1.70
2006,05,02,06,06,1.70
2006,05,02,06,07,1.70
2006,05,02,06,08,1.70
2006,05,02,06,09,1.70
2006,05,02,06,10,1.80
2006,05,02,06,11,1.80
2006,05,02,06,12,1.80
2006,05,02,06,13,1.80
2006,05,02,06,14,1.90
2006,05,02,06,15,1.90
2006,05,02,06,16,1.90
2006,05,02,06,17,2.00
2006,05,02,06,18,2.00
2006,05,02,06,19,2.00
2006,05,02,06,20,2.10
2006,05,02,06,21,2.10
2006,05,02,06,22,2.20
2006,05,02,06,23,2.20
2006,05,02,06,24,2.20
2006,05,02,06,25,2.30
2006,05,02,06,26,2.50
2006,05,02,06,27,2.50
2006,05,02,06,28,2.60
2006,05,02,06,29,2.70
2006,05,02,06,30,2.70
2006,05,02,06,31,2.90
2006,05,02,06,32,2.90
2006,05,02,06,33,3.10
2006,05,02,06,34,3.20
2006,05,02,06,35,3.30
2006,05,02,06,36,3.50
2006,05,02,06,37,3.60
2006,05,02,06,38,3.70
2006,05,02,06,39,3.80
2006,05,02,06,40,3.90
2006,05,02,06,41,4.00
2006,05,02,06,42,4.00
2006,05,02,06,43,4.10
2006,05,02,06,44,4.10
2006,05,02,06,45,4.10
2006,05,02,06,46,4.10
2006,05,02,06,47,4.10
2006,05,02,06,48,4.20
2006,05,02,06,49,4.20
2006,05,02,06,50,4.20
2006,05,02,06,51,4.20
2006,05,02,06,52,4.20
2006,05,02,06,53,4.20
2006,05,02,06,54,4.20
2006,05,02,06,55,4.20
2006,05,02,06,56,4.20
2006,05,02,06,57,4.30
2006,05,02,06,58,4.30
2006,05,02,06,59,4.30
2006,05,02,07,00,4.40
2006,05,02,07,01,4.40
2006,05,02,07,02,4.40
2006,05,02,07,03,4.50
2006,05,02,07,04,4.50
2006,05,02,07,05,4.50
2006,05,02,07,06,4.50
2006,05,02,07,07,4.60
2006,05,02,07,08,4.60
2006,05,02,07,09,4.60
2006,05,02,07,10,4.70
2006,05,02,07,11,4.70
2006,05,02,07,12,4.80
2006,05,02,07,13,4.90
2006,05,02,07,14,5.00
2006,05,02,07,15,5.10
2006,05,02,07,16,5.10
2006,05,02,07,17,5.20
2006,05,02,07,18,5.30
2006,05,02,07,19,5.30
2006,05,02,07,20,5.30
2006,05,02,07,21,5.40
2006,05,02,07,22,5.40
2006,05,02,07,23,5.40
2006,05,02,07,24,5.50
2006,05,02,07,25,5.60
2006,05,02,07,26,5.60
2006,05,02,07,27,5.60
2006,05,02,07,28,5.70
2006,05,02,07,29,5.70
2006,05,02,07,30,5.70
2006,05,02,07,31,5.70
2006,05,02,07,32,5.80
2006,05,02,07,33,5.80
2006,05,02,07,34,5.90
2006,05,02,07,35,6.00
2006,05,02,07,36,6.00
2006,05,02,07,37,6.10
2006,05,02,07,38,6.20
2006,05,02,07,39,6.20
2006,05,02,07,40,6.20
2006,05,02,07,41,6.30
2006,05,02,07,42,6.40
2006,05,02,07,43,6.40
2006,05,02,07,44,6.60
2006,05,02,07,45,6.60
2006,05,02,07,46,6.70
2006,05,02,07,47,6.70
2006,05,02,07,48,6.80
2006,05,02,07,49,6.80
2006,05,02,07,50,6.90
2006,05,02,07,51,6.90
2006,05,02,07,52,7.00
2006,05,02,07,53,7.10
2006,05,02,07,54,7.20
2006,05,02,07,55,7.30
2006,05,02,07,56,7.30
2006,05,02,07,57,7.30
2006,05,02,07,58,7.50
2006,05,02,07,59,7.60
2006,05,02,08,00,7.60
2006,05,02,08,01,7.80
2006,05,02,08,02,7.80
2006,05,02,08,03,7.80
2006,05,02,08,04,7.90
2006,05,02,08,05,8.00
2006,05,02,08,06,8.00
2006,05,02,08,07,8.00
2006,05,02,08,08,8.00
2006,05,02,08,09,8.10
2006,05,02,08,10,8.10
2006,05,02,08,11,8.20
2006,05,02,08,12,8.20
2006,05,02,08,13,8.20
2006,05,02,08,14,8.20
2006,05,02,08,15,8.20
2006,05,02,08,16,8.30
2006,05,02,08,17,8.30
2006,05,02,08,18,8.30
2006,05,02,08,19,8.20
2006,05,02,08,20,8.20
2006,05,02,08,21,8.20
2006,05,02,08,22,8.20
2006,05,02,08,23,8.20
2006,05,02,08,24,8.20
2006,05,02,08,25,8.20
2006,05,02,08,26,8.20
2006,05,02,08,27,8.20
2006,05,02,08,28,8.20
2006,05,02,08,29,8.20
2006,05,02,08,30,8.20
2006,05,02,08,31,8.20
2006,05,02,08,32,8.20
2006,05,02,08,33,8.30
2006,05,02,08,34,8.30
2006,05,02,08,35,8.30
2006,05,02,08,36,8.30
2006,05,02,08,37,8.30
2006,05,02,08,38,8.30
2006,05,02,08,39,8.30
2006,05,02,08,40,8.30
2006,05,02,08,41,8.40
2006,05,02,08,42,8.40
2006,05,02,08,43,8.40
2006,05,02,08,44,8.40
2006,05,02,08,45,8.40
2006,05,02,08,46,8.30
2006,05,02,08,47,8.30
2006,05,02,08,48,8.30
2006,05,02,08,49,8.30
2006,05,02,08,50,8.40
2006,05,02,08,51,8.50
2006,05,02,08,52,8.60
2006,05,02,08,53,8.60
2006,05,02,08,54,8.60
2006,05,02,08,55,8.60
2006,05,02,08,56,8.70
2006,05,02,08,57,8.70
2006,05,02,08,58,8.70
2006,05,02,08,59,8.70
2006,05,02,09,00,8.70
2006,05,02,09,01,8.70
2006,05,02,09,02,8.70
2006,05,02,09,03,8.70
2006,05,02,09,04,8.70
2006,05,02,09,05,8.80
2006,05,02,09,06,8.90
2006,05,02,09,07,9.00
2006,05,02,09,08,9.10
2006,05,02,09,09,9.10
2006,05,02,09,10,9.10
2006,05,02,09,11,9.20
2006,05,02,09,12,9.20
2006,05,02,09,13,9.20
2006,05,02,09,14,9.20
2006,05,02,09,15,9.20
2006,05,02,09,16,9.20
2006,05,02,09,17,9.20
2006,05,02,09,18,9.10
2006,05,02,09,19,9.00
2006,05,02,09,20,9.00
2006,05,02,09,21,9.00
2006,05,02,09,22,9.00
2006,05,02,09,23,9.00
2006,05,02,09,24,8.90
2006,05,02,09,25,8.90
2006,05,02,09,26,9.00
2006,05,02,09,27,9.10
2006,05,02,09,28,9.20
2006,05,02,09,29,9.20
2006,05,02,09,30,9.20
2006,05,02,09,31,9.20
2006,05,02,09,32,9.20
2006,05,02,09,33,9.20
2006,05,02,09,34,9.20
2006,05,02,09,35,9.20
2006,05,02,09,36,9.20
2006,05,02,09,37,9.20
2006,05,02,09,38,9.30
2006,05,02,09,39,9.30
2006,05,02,09,40,9.30
2006,05,02,09,41,9.20
2006,05,02,09,42,9.20
2006,05,02,09,43,9.20
2006,05,02,09,44,9.20
2006,05,02,09,45,9.20
2006,05,02,09,46,9.30
2006,05,02,09,47,9.30
2006,05,02,09,48,9.40
2006,05,02,09,49,9.50
2006,05,02,09,50,9.50
2006,05,02,09,51,9.60
2006,05,02,09,52,9.50
2006,05,02,09,53,9.40
2006,05,02,09,54,9.40
2006,05,02,09,55,9.50
2006,05,02,09,56,9.60
2006,05,02,09,57,9.50
2006,05,02,09,58,9.50
2006,05,02,09,59,9.70
2006,05,02,10,00,9.80
2006,05,02,10,01,9.80
2006,05,02,10,02,9.80
2006,05,02,10,03,9.70
2006,05,02,10,04,9.70
2006,05,02,10,05,9.70
2006,05,02,10,06,9.70
2006,05,02,10,07,9.70
2006,05,02,10,08,9.70
2006,05,02,10,09,9.70
2006,05,02,10,10,9.70
2006,05,02,10,11,9.80
2006,05,02,10,12,9.80
2006,05,02,10,13,9.80
2006,05,02,10,14,9.80
2006,05,02,10,15,9.90
2006,05,02,10,16,9.90
2006,05,02,10,17,9.90
2006,05,02,10,18,9.90
2006,05,02,10,19,9.80
2006,05,02,10,20,9.80
2006,05,02,10,21,9.90
2006,05,02,10,22,9.90
2006,05,02,10,23,9.90
2006,05,02,10,24,9.90
2006,05,02,10,25,9.90
2006,05,02,10,26,9.90
2006,05,02,10,27,9.80
2006,05,02,10,28,9.80
2006,05,02,10,29,9.90
2006,05,02,10,30,10.00
2006,05,02,10,31,10.10
2006,05,02,10,32,10.00
2006,05,02,10,33,9.90
2006,05,02,10,34,9.90
2006,05,02,10,35,9.90
2006,05,02,10,36,9.90
2006,05,02,10,37,9.90
2006,05,02,10,38,9.90
2006,05,02,10,39,9.90
2006,05,02,10,40,9.90
2006,05,02,10,41,9.90
2006,05,02,10,42,9.90
2006,05,02,10,43,9.90
2006,05,02,10,44,10.00
2006,05,02,10,45,10.10
2006,05,02,10,46,10.20
2006,05,02,10,47,10.20
2006,05,02,10,48,10.30
2006,05,02,10,49,10.30
2006,05,02,10,50,10.20
2006,05,02,10,51,10.20
2006,05,02,10,52,10.20
2006,05,02,10,53,10.30
2006,05,02,10,54,10.40
2006,05,02,10,55,10.40
2006,05,02,10,56,10.40
2006,05,02,10,57,10.50
2006,05,02,10,58,10.60
2006,05,02,10,59,10.60
2006,05,02,11,00,10.50
2006,05,02,11,01,10.30
2006,05,02,11,02,10.30
2006,05,02,11,03,10.40
2006,05,02,11,04,10.40
2006,05,02,11,05,10.50
2006,05,02,11,06,10.60
2006,05,02,11,07,10.60
2006,05,02,11,08,10.50
2006,05,02,11,09,10.40
2006,05,02,11,10,10.40
2006,05,02,11,11,10.40
2006,05,02,11,12,10.40
2006,05,02,11,13,10.40
2006,05,02,11,14,10.40
2006,05,02,11,15,10.40
2006,05,02,11,16,10.40
2006,05,02,11,17,10.50
2006,05,02,11,18,10.60
2006,05,02,11,19,10.70
2006,05,02,11,20,10.60
2006,05,02,11,21,10.50
2006,05,02,11,22,10.40
2006,05,02,11,23,10.40
2006,05,02,11,24,10.40
2006,05,02,11,25,10.40
2006,05,02,11,26,10.40
2006,05,02,11,27,10.40
2006,05,02,11,28,10.40
2006,05,02,11,29,10.20
2006,05,02,11,30,10.30
2006,05,02,11,31,10.40
2006,05,02,11,32,10.60
2006,05,02,11,33,10.60
2006,05,02,11,34,10.60
2006,05,02,11,35,10.60
2006,05,02,11,36,10.70
2006,05,02,11,37,10.70
2006,05,02,11,38,10.80
2006,05,02,11,39,10.70
2006,05,02,11,40,10.80
2006,05,02,11,41,10.70
2006,05,02,11,42,10.70
2006,05,02,11,43,10.70
2006,05,02,11,44,10.80
2006,05,02,11,45,10.80
2006,05,02,11,46,10.70
2006,05,02,11,47,10.80
2006,05,02,11,48,10.80
2006,05,02,11,49,10.80
2006,05,02,11,50,10.80
2006,05,02,11,51,10.80
2006,05,02,11,52,10.80
2006,05,02,11,53,10.90
2006,05,02,11,54,10.90
2006,05,02,11,55,10.90
2006,05,02,11,56,10.90
2006,05,02,11,57,10.90
2006,05,02,11,58,10.90
2006,05,02,11,59,10.90
2006,05,02,12,00,10.90
2006,05,02,12,01,10.90
2006,05,02,12,02,10.90
2006,05,02,12,03,10.90
2006,05,02,12,04,10.90
2006,05,02,12,05,11.00
2006,05,02,12,06,11.10
2006,05,02,12,07,11.10
2006,05,02,12,08,11.20
2006,05,02,12,09,11.20
2006,05,02,12,10,11.40
2006,05,02,12,11,11.50
2006,05,02,12,12,11.60
2006,05,02,12,13,11.60
2006,05,02,12,14,11.60
2006,05,02,12,15,11.50
2006,05,02,12,16,11.40
2006,05,02,12,17,11.40
2006,05,02,12,18,11.40
2006,05,02,12,19,11.40
2006,05,02,12,20,11.40
2006,05,02,12,21,11.40
2006,05,02,12,22,11.40
2006,05,02,12,23,11.50
2006,05,02,12,24,11.60
2006,05,02,12,25,11.60
2006,05,02,12,26,11.60
2006,05,02,12,27,11.60
2006,05,02,12,28,11.60
2006,05,02,12,29,11.70
2006,05,02,12,30,11.70
2006,05,02,12,31,11.60
2006,05,02,12,32,11.60
2006,05,02,12,33,11.60
2006,05,02,12,34,11.60
2006,05,02,12,35,11.60
2006,05,02,12,36,11.60
2006,05,02,12,37,11.70
2006,05,02,12,38,11.70
2006,05,02,12,39,11.80
2006,05,02,12,40,11.90
2006,05,02,12,41,11.90
2006,05,02,12,42,11.90
2006,05,02,12,43,11.90
2006,05,02,12,44,11.90
2006,05,02,12,45,11.70
2006,05,02,12,46,11.80
2006,05,02,12,47,11.80
2006,05,02,12,48,11.80
2006,05,02,12,49,11.80
2006,05,02,12,50,11.90
2006,05,02,12,51,11.90
2006,05,02,12,52,11.90
2006,05,02,12,53,11.80
2006,05,02,12,54,11.70
2006,05,02,12,55,11.60
2006,05,02,12,56,11.60
2006,05,02,12,57,11.70
2006,05,02,12,58,11.80
2006,05,02,12,59,11.80
2006,05,02,13,00,11.80
2006,05,02,13,01,11.80
2006,05,02,13,02,11.70
2006,05,02,13,03,11.60
2006,05,02,13,04,11.60
2006,05,02,13,05,11.60
2006,05,02,13,06,11.70
2006,05,02,13,07,11.90
2006,05,02,13,08,12.00
2006,05,02,13,09,12.10
2006,05,02,13,10,12.20
2006,05,02,13,11,12.10
2006,05,02,13,12,12.10
2006,05,02,13,13,12.10
2006,05,02,13,14,12.10
2006,05,02,13,15,12.20
2006,05,02,13,16,12.20
2006,05,02,13,17,12.00
2006,05,02,13,18,12.00
2006,05,02,13,19,12.10
2006,05,02,13,20,12.30
2006,05,02,13,21,12.30
2006,05,02,13,22,12.30
2006,05,02,13,23,12.40
2006,05,02,13,24,12.60
2006,05,02,13,25,12.80
2006,05,02,13,26,12.90
2006,05,02,13,27,12.80
2006,05,02,13,28,12.80
2006,05,02,13,29,12.60
2006,05,02,13,30,12.50
2006,05,02,13,31,12.40
2006,05,02,13,32,12.40
2006,05,02,13,33,12.40
2006,05,02,13,34,12.40
2006,05,02,13,35,12.40
2006,05,02,13,36,12.30
2006,05,02,13,37,12.30
2006,05,02,13,38,12.20
2006,05,02,13,39,12.20
2006,05,02,13,40,12.20
2006,05,02,13,41,12.40
2006,05,02,13,42,12.50
2006,05,02,13,43,12.60
2006,05,02,13,44,12.60
2006,05,02,13,45,12.60
2006,05,02,13,46,12.50
2006,05,02,13,47,12.40
2006,05,02,13,48,12.30
2006,05,02,13,49,12.40
2006,05,02,13,50,12.50
2006,05,02,13,51,12.50
2006,05,02,13,52,12.50
2006,05,02,13,53,12.60
2006,05,02,13,54,12.70
2006,05,02,13,55,12.70
2006,05,02,13,56,12.90
2006,05,02,13,57,13.10
2006,05,02,13,58,13.30
2006,05,02,13,59,13.30
2006,05,02,14,00,13.20
2006,05,02,14,01,13.20
2006,05,02,14,02,12.90
2006,05,02,14,03,12.80
2006,05,02,14,04,12.80
2006,05,02,14,05,12.80
2006,05,02,14,06,12.80
2006,05,02,14,07,12.80
2006,05,02,14,08,12.80
2006,05,02,14,09,12.80
2006,05,02,14,10,12.80
2006,05,02,14,11,12.80
2006,05,02,14,12,12.80
2006,05,02,14,13,12.80
2006,05,02,14,14,12.90
2006,05,02,14,15,13.00
2006,05,02,14,16,13.00
2006,05,02,14,17,12.90
2006,05,02,14,18,12.90
2006,05,02,14,19,12.90
2006,05,02,14,20,12.90
2006,05,02,14,21,12.90
2006,05,02,14,22,12.90
2006,05,02,14,23,12.80
2006,05,02,14,24,12.90
2006,05,02,14,25,12.90
2006,05,02,14,26,13.00
2006,05,02,14,27,13.10
2006,05,02,14,28,13.10
2006,05,02,14,29,13.10
2006,05,02,14,30,13.30
2006,05,02,14,31,13.30
2006,05,02,14,32,13.20
2006,05,02,14,33,13.20
2006,05,02,14,34,13.20
2006,05,02,14,35,13.20
2006,05,02,14,36,13.30
2006,05,02,14,37,13.30
2006,05,02,14,38,13.30
2006,05,02,14,39,13.30
2006,05,02,14,40,13.20
2006,05,02,14,41,13.20
2006,05,02,14,42,13.20
2006,05,02,14,43,13.40
2006,05,02,14,44,13.40
2006,05,02,14,45,13.40
2006,05,02,14,46,13.40
2006,05,02,14,47,13.50
2006,05,02,14,48,13.70
2006,05,02,14,49,13.70
2006,05,02,14,50,13.70
2006,05,02,14,51,13.60
2006,05,02,14,52,13.60
2006,05,02,14,53,13.60
2006,05,02,14,54,13.60
2006,05,02,14,55,13.60
2006,05,02,14,56,13.70
2006,05,02,14,57,13.70
2006,05,02,14,58,13.60
2006,05,02,14,59,13.50
2006,05,02,15,00,13.50
2006,05,02,15,01,13.50
2006,05,02,15,02,13.50
2006,05,02,15,03,13.40
2006,05,02,15,04,13.40
2006,05,02,15,05,13.30
2006,05,02,15,06,13.40
2006,05,02,15,07,13.50
2006,05,02,15,08,13.50
2006,05,02,15,09,13.50
2006,05,02,15,10,13.60
2006,05,02,15,11,13.60
2006,05,02,15,12,13.60
2006,05,02,15,13,13.60
2006,05,02,15,14,13.60
2006,05,02,15,15,13.70
2006,05,02,15,16,13.70
2006,05,02,15,17,13.70
2006,05,02,15,18,13.70
2006,05,02,15,19,13.70
2006,05,02,15,20,13.60
2006,05,02,15,21,13.60
2006,05,02,15,22,13.60
2006,05,02,15,23,13.60
2006,05,02,15,24,13.70
2006,05,02,15,25,13.70
2006,05,02,15,26,13.70
2006,05,02,15,27,13.70
2006,05,02,15,28,13.70
2006,05,02,15,29,13.70
2006,05,02,15,30,13.80
2006,05,02,15,31,13.80
2006,05,02,15,32,13.70
2006,05,02,15,33,13.70
2006,05,02,15,34,13.70
2006,05,02,15,35,13.90
2006,05,02,15,36,13.90
2006,05,02,15,37,14.00
2006,05,02,15,38,14.10
2006,05,02,15,39,14.00
2006,05,02,15,40,13.90
2006,05,02,15,41,13.90
2006,05,02,15,42,13.80
2006,05,02,15,43,13.70
2006,05,02,15,44,13.70
2006,05,02,15,45,13.70
2006,05,02,15,46,13.70
2006,05,02,15,47,13.70
2006,05,02,15,48,13.70
2006,05,02,15,49,13.70
2006,05,02,15,50,13.70
2006,05,02,15,51,13.70
2006,05,02,15,52,13.70
2006,05,02,15,53,13.70
2006,05,02,15,54,13.70
2006,05,02,15,55,13.70
2006,05,02,15,56,13.80
2006,05,02,15,57,13.80
2006,05,02,15,58,13.90
2006,05,02,15,59,13.80
2006,05,02,16,00,13.80
2006,05,02,16,01,13.80
2006,05,02,16,02,13.90
2006,05,02,16,03,14.00
2006,05,02,16,04,14.00
2006,05,02,16,05,14.10
2006,05,02,16,06,14.20
2006,05,02,16,07,14.20
2006,05,02,16,08,14.20
2006,05,02,16,09,14.30
2006,05,02,16,10,14.30
2006,05,02,16,11,14.30
2006,05,02,16,12,14.30
2006,05,02,16,13,14.20
2006,05,02,16,14,14.20
2006,05,02,16,15,14.20
2006,05,02,16,16,14.30
2006,05,02,16,17,14.30
2006,05,02,16,18,14.30
2006,05,02,16,19,14.20
2006,05,02,16,20,14.30
2006,05,02,16,21,14.40
2006,05,02,16,22,14.40
2006,05,02,16,23,14.40
2006,05,02,16,24,14.40
2006,05,02,16,25,14.40
2006,05,02,16,26,14.50
2006,05,02,16,27,14.50
2006,05,02,16,28,14.50
2006,05,02,16,29,14.40
2006,05,02,16,30,14.40
2006,05,02,16,31,14.50
2006,05,02,16,32,14.50
2006,05,02,16,33,14.40
2006,05,02,16,34,14.40
2006,05,02,16,35,14.50
2006,05,02,16,36,14.50
2006,05,02,16,37,14.50
2006,05,02,16,38,14.50
2006,05,02,16,39,14.50
2006,05,02,16,40,14.50
2006,05,02,16,41,14.60
2006,05,02,16,42,14.60
2006,05,02,16,43,14.60
2006,05,02,16,44,14.60
2006,05,02,16,45,14.60
2006,05,02,16,46,14.60
2006,05,02,16,47,14.60
2006,05,02,16,48,14.60
2006,05,02,16,49,14.60
2006,05,02,16,50,14.60
2006,05,02,16,51,14.40
2006,05,02,16,52,14.40
2006,05,02,16,53,14.30
2006,05,02,16,54,14.30
2006,05,02,16,55,14.30
2006,05,02,16,56,14.40
2006,05,02,16,57,14.50
2006,05,02,16,58,14.60
2006,05,02,16,59,14.60
2006,05,02,17,00,14.60
2006,05,02,17,01,14.60
2006,05,02,17,02,14.70
2006,05,02,17,03,14.80
2006,05,02,17,04,14.80
2006,05,02,17,05,14.80
2006,05,02,17,06,14.80
2006,05,02,17,07,14.80
2006,05,02,17,08,14.70
2006,05,02,17,09,14.60
2006,05,02,17,10,14.70
2006,05,02,17,11,14.70
2006,05,02,17,12,14.70
2006,05,02,17,13,14.70
2006,05,02,17,14,14.70
2006,05,02,17,15,14.60
2006,05,02,17,16,14.60
2006,05,02,17,17,14.70
2006,05,02,17,18,14.70
2006,05,02,17,19,14.80
2006,05,02,17,20,14.80
2006,05,02,17,21,14.90
2006,05,02,17,22,14.90
2006,05,02,17,23,14.90
2006,05,02,17,24,14.90
2006,05,02,17,25,14.90
2006,05,02,17,26,14.80
2006,05,02,17,27,14.80
2006,05,02,17,28,14.80
2006,05,02,17,29,14.80
2006,05,02,17,30,14.90
2006,05,02,17,31,14.80
2006,05,02,17,32,14.80
2006,05,02,17,33,14.80
2006,05,02,17,34,14.70
2006,05,02,17,35,14.70
2006,05,02,17,36,14.70
2006,05,02,17,37,14.60
2006,05,02,17,38,14.60
2006,05,02,17,39,14.70
2006,05,02,17,40,14.70
2006,05,02,17,41,14.80
2006,05,02,17,42,14.80
2006,05,02,17,43,14.80
2006,05,02,17,44,14.90
2006,05,02,17,45,14.90
2006,05,02,17,46,14.90
2006,05,02,17,47,14.80